| time (UTC) | temp F | wind direction | speed MPH | gust MPH | rain 1hr in | rain 24hr in | rain mn in | humidity % | barometer mb |
| 20260902202850 | 99 | 30 | 5.0 | 13.0 | 0.00 | 0.00 | 0.00 | 38 | 1010.2 |
| 20260902202346 | 99 | 15 | 7.0 | 9.0 | 0.00 | 0.00 | 0.00 | 38 | 1010.5 |
| 20260902201843 | 99 | 54 | 4.0 | 14.0 | 0.00 | 0.00 | 0.00 | 38 | 1010.3 |
| 20260902201342 | 100 | 314 | 4.0 | 5.0 | 0.00 | 0.00 | 0.00 | 38 | 1010.5 |
| 20260902200837 | 100 | 343 | 4.0 | 7.0 | 0.00 | 0.00 | 0.00 | 39 | 1010.6 |
| 20260902200332 | 99 | 347 | 9.0 | 9.0 | 0.00 | 0.00 | 0.00 | 39 | 1010.6 |
| 20260902195828 | 99 | 297 | 4.0 | 10.0 | 0.00 | 0.00 | 0.00 | 40 | 1010.5 |
| 20260902195327 | 99 | 331 | 3.0 | 13.0 | 0.00 | 0.00 | 0.00 | 41 | 1010.5 |
| 20260902194822 | 98 | 20 | 3.0 | 8.0 | 0.00 | 0.00 | 0.00 | 41 | 1010.9 |
| 20260902194317 | 98 | 61 | 4.0 | 9.0 | 0.00 | 0.00 | 0.00 | 41 | 1011.0 |
| 20260902193812 | 99 | 343 | 5.0 | 9.0 | 0.00 | 0.00 | 0.00 | 39 | 1011.2 |
| 20260902193308 | 98 | 41 | 5.0 | 16.0 | 0.00 | 0.00 | 0.00 | 40 | 1011.0 |
| 20260902192807 | 98 | 259 | 2.0 | 9.0 | 0.00 | 0.00 | 0.00 | 40 | 1011.4 |
| 20260902192307 | 98 | 337 | 5.0 | 12.0 | 0.00 | 0.00 | 0.00 | 40 | 1011.3 |
| 20260902191805 | 97 | 96 | 5.0 | 12.0 | 0.00 | 0.00 | 0.00 | 41 | 1011.7 |
| 20260902191300 | 99 | 7 | 6.0 | 14.0 | 0.00 | 0.00 | 0.00 | 39 | 1011.4 |
| 20260902190756 | 98 | 38 | 12.0 | 12.0 | 0.00 | 0.00 | 0.00 | 41 | 1011.5 |
| 20260902190255 | 99 | 108 | 2.0 | 8.0 | 0.00 | 0.00 | 0.00 | 40 | 1011.4 |
| 20260902185751 | 98 | 336 | 3.0 | 11.0 | 0.00 | 0.00 | 0.00 | 41 | 1011.4 |
| 20260902185246 | 98 | 272 | 0.0 | 6.0 | 0.00 | 0.00 | 0.00 | 41 | 1011.8 |
| 20260902184743 | 98 | 75 | 6.0 | 11.0 | 0.00 | 0.00 | 0.00 | 40 | 1012.0 |
| 20260902184242 | 99 | 68 | 4.0 | 6.0 | 0.00 | 0.00 | 0.00 | 40 | 1012.0 |
| 20260902183738 | 98 | 50 | 7.0 | 11.0 | 0.00 | 0.00 | 0.00 | 42 | 1012.0 |
| 20260902183234 | 97 | 33 | 10.0 | 13.0 | 0.00 | 0.00 | 0.00 | 42 | 1012.1 |
| 20260902182730 | 96 | 280 | 4.0 | 12.0 | 0.00 | 0.00 | 0.00 | 43 | 1012.0 |
| 20260902182227 | 97 | 324 | 4.0 | 6.0 | 0.00 | 0.00 | 0.00 | 42 | 1012.2 |
| 20260902181723 | 97 | 7 | 4.0 | 8.0 | 0.00 | 0.00 | 0.00 | 42 | 1012.4 |
| 20260902181222 | 97 | 29 | 6.0 | 11.0 | 0.00 | 0.00 | 0.00 | 43 | 1012.5 |
| 20260902180717 | 97 | 101 | 5.0 | 10.0 | 0.00 | 0.00 | 0.00 | 43 | 1012.5 |
| 20260902180213 | 98 | 319 | 4.0 | 5.0 | 0.00 | 0.00 | 0.00 | 41 | 1012.8 |
| 20260902175708 | 96 | 19 | 7.0 | 12.0 | 0.00 | 0.00 | 0.00 | 44 | 1012.8 |
| 20260902175204 | 97 | 58 | 5.0 | 9.0 | 0.00 | 0.00 | 0.00 | 44 | 1012.9 |
| 20260902174659 | 96 | 310 | 3.0 | 5.0 | 0.00 | 0.00 | 0.00 | 45 | 1013.0 |
| 20260902174155 | 96 | 20 | 5.0 | 11.0 | 0.00 | 0.00 | 0.00 | 45 | 1013.1 |
| 20260902173650 | 96 | 33 | 3.0 | 8.0 | 0.00 | 0.00 | 0.00 | 45 | 1013.0 |
| 20260902173145 | 96 | 150 | 3.0 | 9.0 | 0.00 | 0.00 | 0.00 | 45 | 1012.9 |
| 20260902172639 | 96 | 89 | 4.0 | 10.0 | 0.00 | 0.00 | 0.00 | 45 | 1013.2 |
| 20260902172138 | 96 | 129 | 2.0 | 9.0 | 0.00 | 0.00 | 0.00 | 45 | 1013.3 |
| 20260902171634 | 96 | 285 | 2.0 | 9.0 | 0.00 | 0.00 | 0.00 | 45 | 1013.4 |
| 20260902171130 | 96 | 94 | 6.0 | 7.0 | 0.00 | 0.00 | 0.00 | 46 | 1013.2 |
| 20260902170625 | 96 | 83 | 5.0 | 5.0 | 0.00 | 0.00 | 0.00 | 45 | 1013.4 |
| 20260902170121 | 96 | 91 | 3.0 | 6.0 | 0.00 | 0.00 | 0.00 | 46 | 1013.6 |
| 20260902165621 | 95 | 357 | 2.0 | 7.0 | 0.00 | 0.00 | 0.00 | 48 | 1013.5 |
| 20260902165115 | 95 | 136 | 1.0 | 7.0 | 0.00 | 0.00 | 0.00 | 48 | 1013.7 |
| 20260902164610 | 95 | 165 | 5.0 | 5.0 | 0.00 | 0.00 | 0.00 | 48 | 1013.7 |
| 20260902164109 | 96 | 50 | 5.0 | 8.0 | 0.00 | 0.00 | 0.00 | 47 | 1013.8 |
| 20260902163605 | 95 | 205 | 1.0 | 3.0 | 0.00 | 0.00 | 0.00 | 47 | 1013.7 |
| 20260902163103 | 94 | 247 | 2.0 | 5.0 | 0.00 | 0.00 | 0.00 | 48 | 1013.7 |
| 20260902162603 | 94 | 322 | 1.0 | 3.0 | 0.00 | 0.00 | 0.00 | 47 | 1013.9 |
| 20260902162058 | 94 | 58 | 3.0 | 5.0 | 0.00 | 0.00 | 0.00 | 48 | 1013.8 |
| 20260902161552 | 93 | 26 | 4.0 | 7.0 | 0.00 | 0.00 | 0.00 | 51 | 1014.0 |
| 20260902161048 | 93 | 300 | 2.0 | 6.0 | 0.00 | 0.00 | 0.00 | 51 | 1013.9 |
| 20260902160544 | 93 | 170 | 3.0 | 6.0 | 0.00 | 0.00 | 0.00 | 53 | 1013.7 |
| 20260902160039 | 93 | 166 | 2.0 | 6.0 | 0.00 | 0.00 | 0.00 | 53 | 1013.8 |
| 20260902155532 | 93 | 48 | 3.0 | 4.0 | 0.00 | 0.00 | 0.00 | 53 | 1014.0 |
| 20260902155031 | 93 | 42 | 3.0 | 8.0 | 0.00 | 0.00 | 0.00 | 54 | 1014.0 |
| 20260902154527 | 92 | 158 | 1.0 | 3.0 | 0.00 | 0.00 | 0.00 | 55 | 1013.9 |
| 20260902154021 | 92 | 241 | 0.0 | 5.0 | 0.00 | 0.00 | 0.00 | 56 | 1014.0 |
| 20260902153520 | 92 | 321 | 3.0 | 7.0 | 0.00 | 0.00 | 0.00 | 56 | 1013.9 |
| 20260902153015 | 91 | 321 | 2.0 | 6.0 | 0.00 | 0.00 | 0.00 | 58 | 1013.9 |
| 20260902152512 | 92 | 316 | 3.0 | 5.0 | 0.00 | 0.00 | 0.00 | 57 | 1014.1 |
| 20260902152007 | 91 | 134 | 3.0 | 5.0 | 0.00 | 0.00 | 0.00 | 58 | 1014.2 |
| 20260902151503 | 90 | 164 | 5.0 | 7.0 | 0.00 | 0.00 | 0.00 | 59 | 1014.0 |
| 20260902150956 | 90 | 123 | 3.0 | 6.0 | 0.00 | 0.00 | 0.00 | 59 | 1014.1 |
| 20260902150452 | 89 | 124 | 1.0 | 3.0 | 0.00 | 0.00 | 0.00 | 60 | 1014.0 |
| 20260902145952 | 90 | 167 | 4.0 | 5.0 | 0.00 | 0.00 | 0.00 | 60 | 1013.8 |
| 20260902145447 | 89 | 71 | 3.0 | 6.0 | 0.00 | 0.00 | 0.00 | 60 | 1014.0 |
| 20260902144942 | 90 | 28 | 3.0 | 4.0 | 0.00 | 0.00 | 0.00 | 60 | 1014.0 |
| 20260902144438 | 89 | 156 | 2.0 | 4.0 | 0.00 | 0.00 | 0.00 | 63 | 1013.8 |
| 20260902143937 | 88 | 154 | 0.0 | 5.0 | 0.00 | 0.00 | 0.00 | 63 | 1013.8 |
| 20260902143433 | 88 | 262 | 1.0 | 5.0 | 0.00 | 0.00 | 0.00 | 64 | 1014.0 |
| 20260902142928 | 87 | 101 | 1.0 | 6.0 | 0.00 | 0.00 | 0.00 | 65 | 1014.0 |
| 20260902142419 | 87 | 77 | 3.0 | 4.0 | 0.00 | 0.00 | 0.00 | 65 | 1014.0 |
| 20260902141914 | 87 | 124 | 3.0 | 5.0 | 0.00 | 0.00 | 0.00 | 66 | 1014.0 |
| 20260902141409 | 86 | 115 | 2.0 | 5.0 | 0.00 | 0.00 | 0.00 | 68 | 1013.8 |
| 20260902140908 | 85 | 93 | 4.0 | 8.0 | 0.00 | 0.00 | 0.00 | 69 | 1013.9 |
| 20260902140404 | 86 | 57 | 2.0 | 3.0 | 0.00 | 0.00 | 0.00 | 68 | 1014.0 |
| 20260902135858 | 86 | 156 | 0.0 | 4.0 | 0.00 | 0.00 | 0.00 | 68 | 1014.0 |
| 20260902135354 | 85 | 215 | 0.0 | 4.0 | 0.00 | 0.00 | 0.00 | 70 | 1013.9 |
| 20260902134853 | 85 | 135 | 4.0 | 5.0 | 0.00 | 0.00 | 0.00 | 70 | 1014.1 |
| 20260902134349 | 83 | 138 | 1.0 | 8.0 | 0.00 | 0.00 | 0.00 | 72 | 1014.1 |
| 20260902133843 | 84 | 106 | 4.0 | 7.0 | 0.00 | 0.00 | 0.00 | 72 | 1014.0 |
| 20260902133343 | 84 | 168 | 2.0 | 7.0 | 0.00 | 0.00 | 0.00 | 72 | 1014.1 |
| 20260902132838 | 84 | 153 | 4.0 | 5.0 | 0.00 | 0.00 | 0.00 | 73 | 1013.9 |
| 20260902132333 | 83 | 99 | 1.0 | 7.0 | 0.00 | 0.00 | 0.00 | 74 | 1014.0 |
| 20260902131829 | 83 | 127 | 3.0 | 4.0 | 0.00 | 0.00 | 0.00 | 74 | 1013.9 |
| 20260902131326 | 82 | 107 | 3.0 | 5.0 | 0.00 | 0.00 | 0.00 | 76 | 1013.8 |
| 20260902130825 | 81 | 174 | 1.0 | 5.0 | 0.00 | 0.00 | 0.00 | 76 | 1013.9 |
| 20260902130321 | 81 | 154 | 0.0 | 4.0 | 0.00 | 0.00 | 0.00 | 77 | 1013.6 |
| 20260902125816 | 81 | 86 | 2.0 | 5.0 | 0.00 | 0.00 | 0.00 | 77 | 1013.4 |
| 20260902125312 | 80 | 119 | 1.0 | 4.0 | 0.00 | 0.00 | 0.00 | 78 | 1013.5 |
| 20260902124808 | 80 | 131 | 0.0 | 3.0 | 0.00 | 0.00 | 0.00 | 79 | 1013.4 |
| 20260902124303 | 79 | 68 | 2.0 | 4.0 | 0.00 | 0.00 | 0.00 | 81 | 1013.4 |
| 20260902123758 | 78 | 64 | 2.0 | 3.0 | 0.00 | 0.00 | 0.00 | 81 | 1013.3 |
| 20260902123254 | 78 | 87 | 3.0 | 3.0 | 0.00 | 0.00 | 0.00 | 82 | 1013.2 |
| 20260902122752 | 78 | 79 | 1.0 | 3.0 | 0.00 | 0.00 | 0.00 | 82 | 1013.4 |
| 20260902122249 | 78 | 92 | 2.0 | 3.0 | 0.00 | 0.00 | 0.00 | 83 | 1013.4 |
| 20260902121743 | 77 | 70 | 3.0 | 3.0 | 0.00 | 0.00 | 0.00 | 84 | 1013.3 |
| 20260902121238 | 77 | 108 | 0.0 | 3.0 | 0.00 | 0.00 | 0.00 | 85 | 1013.2 |
| 20260902120733 | 76 | 80 | 3.0 | 3.0 | 0.00 | 0.00 | 0.00 | 86 | 1013.4 |
| 20260902120229 | 77 | 63 | 1.0 | 3.0 | 0.00 | 0.00 | 0.00 | 85 | 1013.3 |
| 20260902115724 | 77 | 87 | 1.0 | 3.0 | 0.00 | 0.00 | 0.00 | 85 | 1013.3 |
| 20260902115220 | 77 | 84 | 2.0 | 3.0 | 0.00 | 0.00 | 0.00 | 85 | 1013.4 |
| 20260902114716 | 77 | 77 | 2.0 | 2.0 | 0.00 | 0.00 | 0.00 | 84 | 1013.2 |
| 20260902114211 | 78 | 73 | 2.0 | 3.0 | 0.00 | 0.00 | 0.00 | 83 | 1013.3 |
| 20260902113706 | 77 | 25 | 0.0 | 2.0 | 0.00 | 0.00 | 0.00 | 83 | 1013.1 |
| 20260902113201 | 77 | 75 | 0.0 | 1.0 | 0.00 | 0.00 | 0.00 | 84 | 1013.2 |
| 20260902112701 | 77 | 343 | 0.0 | 1.0 | 0.00 | 0.00 | 0.00 | 83 | 1013.3 |
| 20260902112159 | 77 | 322 | 0.0 | 2.0 | 0.00 | 0.00 | 0.00 | 82 | 1013.1 |
| 20260902111654 | 78 | 296 | 1.0 | 2.0 | 0.00 | 0.00 | 0.00 | 82 | 1013.1 |
| 20260902111149 | 78 | 246 | 0.0 | 2.0 | 0.00 | 0.00 | 0.00 | 81 | 1013.1 |
| 20260902110645 | 78 | 89 | 0.0 | 3.0 | 0.00 | 0.00 | 0.00 | 81 | 1013.1 |
| 20260902110141 | 78 | 54 | 0.0 | 2.0 | 0.00 | 0.00 | 0.00 | 81 | 1013.0 |
| 20260902105640 | 78 | 47 | 0.0 | 3.0 | 0.00 | 0.00 | 0.00 | 80 | 1013.2 |
| 20260902105136 | 78 | 130 | 0.0 | 3.0 | 0.00 | 0.00 | 0.00 | 81 | 1013.3 |
| 20260902104631 | 78 | 106 | 1.0 | 3.0 | 0.00 | 0.00 | 0.00 | 81 | 1013.4 |
| 20260902104126 | 78 | 77 | 2.0 | 2.0 | 0.00 | 0.00 | 0.00 | 80 | 1013.3 |
| 20260902103625 | 78 | 309 | 0.0 | 1.0 | 0.00 | 0.00 | 0.00 | 80 | 1013.3 |
| 20260902103121 | 79 | 76 | 0.0 | 1.0 | 0.00 | 0.00 | 0.00 | 80 | 1013.1 |
| 20260902102617 | 78 | 229 | 0.0 | 2.0 | 0.00 | 0.00 | 0.00 | 80 | 1013.0 |
| 20260902102114 | 78 | 254 | 0.0 | 1.0 | 0.00 | 0.00 | 0.00 | 80 | 1013.2 |
| 20260902101609 | 78 | 160 | 0.0 | 2.0 | 0.00 | 0.00 | 0.00 | 80 | 1013.1 |
| 20260902101109 | 78 | 113 | 0.0 | 1.0 | 0.00 | 0.00 | 0.00 | 81 | 1012.9 |
| 20260902100603 | 78 | 309 | 0.0 | 1.0 | 0.00 | 0.00 | 0.00 | 80 | 1013.2 |
| 20260902100058 | 79 | 322 | 0.0 | 1.0 | 0.00 | 0.00 | 0.00 | 80 | 1013.1 |
| 20260902095551 | 79 | 104 | 0.0 | 0.0 | 0.00 | 0.00 | 0.00 | 79 | 1013.3 |
| 20260902095051 | 79 | 104 | 0.0 | 0.0 | 0.00 | 0.00 | 0.00 | 79 | 1012.9 |
| 20260902094546 | 79 | 50 | 0.0 | 0.0 | 0.00 | 0.00 | 0.00 | 79 | 1012.9 |
| 20260902094042 | 79 | 50 | 0.0 | 1.0 | 0.00 | 0.00 | 0.00 | 79 | 1013.0 |
| 20260902093537 | 79 | 57 | 0.0 | 1.0 | 0.00 | 0.00 | 0.00 | 79 | 1013.1 |
| 20260902093037 | 79 | 333 | 0.0 | 0.0 | 0.00 | 0.00 | 0.00 | 79 | 1013.0 |
| 20260902092532 | 79 | 25 | 0.0 | 0.0 | 0.00 | 0.00 | 0.00 | 78 | 1013.0 |
| 20260902092027 | 79 | 37 | 0.0 | 0.0 | 0.00 | 0.00 | 0.00 | 78 | 1013.1 |
| 20260902091522 | 79 | 352 | 0.0 | 0.0 | 0.00 | 0.00 | 0.00 | 78 | 1013.1 |
| 20260902091018 | 79 | 352 | 0.0 | 1.0 | 0.00 | 0.00 | 0.00 | 79 | 1013.0 |
| 20260902090514 | 79 | 333 | 0.0 | 1.0 | 0.00 | 0.00 | 0.00 | 78 | 1013.0 |
| 20260902090013 | 80 | 333 | 0.0 | 1.0 | 0.00 | 0.00 | 0.00 | 77 | 1013.0 |
| 20260902085513 | 80 | 25 | 0.0 | 0.0 | 0.00 | 0.00 | 0.00 | 77 | 1013.1 |
| 20260902085008 | 80 | 205 | 0.0 | 0.0 | 0.00 | 0.00 | 0.00 | 77 | 1013.1 |
| 20260902084504 | 80 | 205 | 0.0 | 0.0 | 0.00 | 0.00 | 0.00 | 77 | 1013.2 |
| 20260902084000 | 80 | 217 | 1.0 | 2.0 | 0.00 | 0.00 | 0.00 | 77 | 1013.1 |
| 20260902083455 | 80 | 309 | 0.0 | 1.0 | 0.00 | 0.00 | 0.00 | 77 | 1013.2 |
| 20260902082949 | 80 | 322 | 0.0 | 1.0 | 0.00 | 0.00 | 0.00 | 77 | 1013.4 |
| 20260902082445 | 80 | 315 | 0.0 | 1.0 | 0.00 | 0.00 | 0.00 | 76 | 1013.2 |
| 20260902081941 | 81 | 230 | 0.0 | 1.0 | 0.00 | 0.00 | 0.00 | 76 | 1013.2 |
| 20260902081437 | 81 | 199 | 0.0 | 2.0 | 0.00 | 0.00 | 0.00 | 75 | 1013.2 |
| 20260902080932 | 81 | 128 | 0.0 | 2.0 | 0.00 | 0.00 | 0.00 | 74 | 1013.5 |
| 20260902080428 | 81 | 235 | 0.0 | 2.0 | 0.00 | 0.00 | 0.00 | 74 | 1013.3 |
| 20260902075928 | 82 | 242 | 0.0 | 1.0 | 0.00 | 0.00 | 0.00 | 73 | 1013.3 |
| 20260902075424 | 82 | 217 | 1.0 | 3.0 | 0.00 | 0.00 | 0.00 | 73 | 1013.3 |
| 20260902074919 | 82 | 213 | 0.0 | 2.0 | 0.00 | 0.00 | 0.00 | 73 | 1013.4 |
| 20260902074414 | 82 | 283 | 0.0 | 2.0 | 0.00 | 0.00 | 0.00 | 72 | 1013.4 |
| 20260902073909 | 82 | 237 | 1.0 | 2.0 | 0.00 | 0.00 | 0.00 | 72 | 1013.4 |
| 20260902073405 | 82 | 232 | 0.0 | 2.0 | 0.00 | 0.00 | 0.00 | 72 | 1013.4 |
| 20260902072901 | 82 | 269 | 0.0 | 3.0 | 0.00 | 0.00 | 0.00 | 72 | 1013.4 |
| 20260902072357 | 83 | 224 | 0.0 | 2.0 | 0.00 | 0.00 | 0.00 | 71 | 1013.1 |
| 20260902071853 | 83 | 220 | 0.0 | 3.0 | 0.00 | 0.00 | 0.00 | 71 | 1013.4 |
| 20260902071352 | 83 | 197 | 1.0 | 3.0 | 0.00 | 0.00 | 0.00 | 70 | 1013.4 |
| 20260902070849 | 84 | 233 | 0.0 | 2.0 | 0.00 | 0.00 | 0.00 | 69 | 1013.2 |
| 20260902070344 | 84 | 199 | 1.0 | 5.0 | 0.00 | 0.00 | 0.00 | 69 | 1013.1 |
| 20260902065842 | 84 | 160 | 1.0 | 4.0 | 0.00 | 0.00 | 0.00 | 69 | 1013.5 |
| 20260902065338 | 84 | 180 | 0.0 | 6.0 | 0.00 | 0.00 | 0.00 | 69 | 1013.2 |
| 20260902064833 | 84 | 184 | 2.0 | 5.0 | 0.00 | 0.00 | 0.00 | 69 | 1013.4 |
| 20260902064330 | 84 | 183 | 3.0 | 4.0 | 0.00 | 0.00 | 0.00 | 69 | 1013.4 |
| 20260902063824 | 84 | 161 | 2.0 | 5.0 | 0.00 | 0.00 | 0.00 | 69 | 1013.5 |
| 20260902063319 | 84 | 170 | 3.0 | 6.0 | 0.00 | 0.00 | 0.00 | 68 | 1013.5 |
| 20260902062813 | 84 | 182 | 3.0 | 4.0 | 0.00 | 0.00 | 0.00 | 68 | 1013.6 |
| 20260902062308 | 84 | 186 | 2.0 | 5.0 | 0.00 | 0.00 | 0.00 | 68 | 1013.6 |
| 20260902061808 | 84 | 207 | 2.0 | 7.0 | 0.00 | 0.00 | 0.00 | 67 | 1013.6 |
| 20260902061303 | 85 | 162 | 3.0 | 6.0 | 0.00 | 0.00 | 0.00 | 66 | 1013.4 |
| 20260902060800 | 85 | 166 | 5.0 | 7.0 | 0.00 | 0.00 | 0.00 | 66 | 1013.2 |
| 20260902060255 | 85 | 189 | 3.0 | 6.0 | 0.00 | 0.00 | 0.00 | 66 | 1013.4 |
| 20260902055750 | 85 | 180 | 5.0 | 12.0 | 0.00 | 0.00 | 0.00 | 66 | 1013.4 |
| 20260902055246 | 85 | 180 | 5.0 | 10.0 | 0.00 | 0.00 | 0.00 | 65 | 1013.4 |
| 20260902054741 | 86 | 145 | 5.0 | 12.0 | 0.00 | 0.00 | 0.00 | 65 | 1013.2 |
| 20260902054236 | 86 | 198 | 1.0 | 7.0 | 0.00 | 0.00 | 0.00 | 65 | 1013.2 |
| 20260902053731 | 86 | 146 | 1.0 | 11.0 | 0.00 | 0.00 | 0.00 | 65 | 1013.0 |
| 20260902053226 | 86 | 161 | 2.0 | 9.0 | 0.00 | 0.00 | 0.00 | 65 | 1013.0 |
| 20260902052725 | 86 | 153 | 12.0 | 14.0 | 0.00 | 0.00 | 0.00 | 65 | 1012.8 |
| 20260902052221 | 86 | 154 | 3.0 | 8.0 | 0.00 | 0.00 | 0.00 | 64 | 1012.8 |
| 20260902051720 | 86 | 180 | 2.0 | 8.0 | 0.00 | 0.00 | 0.00 | 64 | 1012.8 |
| 20260902051214 | 86 | 133 | 5.0 | 9.0 | 0.00 | 0.00 | 0.00 | 64 | 1013.1 |
| 20260902050709 | 86 | 167 | 3.0 | 8.0 | 0.00 | 0.00 | 0.00 | 64 | 1013.1 |
| 20260902050204 | 86 | 229 | 0.0 | 10.0 | 0.00 | 0.00 | 0.00 | 63 | 1012.8 |
| 20260902045659 | 87 | 147 | 5.0 | 11.0 | 0.00 | 0.00 | 0.00 | 63 | 1012.9 |
| 20260902045155 | 86 | 153 | 7.0 | 9.0 | 0.00 | 0.00 | 0.00 | 63 | 1012.9 |
| 20260902044650 | 87 | 114 | 3.0 | 10.0 | 0.00 | 0.00 | 0.00 | 62 | 1012.9 |
| 20260902044146 | 87 | 145 | 4.0 | 10.0 | 0.00 | 0.00 | 0.00 | 62 | 1012.9 |
| 20260902043641 | 87 | 147 | 8.0 | 11.0 | 0.00 | 0.00 | 0.00 | 61 | 1013.0 |
| 20260902043136 | 87 | 132 | 4.0 | 10.0 | 0.00 | 0.00 | 0.00 | 61 | 1012.9 |
| 20260902042635 | 87 | 133 | 3.0 | 9.0 | 0.00 | 0.00 | 0.00 | 61 | 1012.9 |
| 20260902042131 | 87 | 140 | 4.0 | 12.0 | 0.00 | 0.00 | 0.00 | 60 | 1012.8 |
| 20260902041631 | 87 | 147 | 3.0 | 8.0 | 0.00 | 0.00 | 0.00 | 60 | 1012.9 |
| 20260902041125 | 87 | 102 | 3.0 | 8.0 | 0.00 | 0.00 | 0.00 | 60 | 1012.9 |
| 20260902040625 | 87 | 189 | 0.0 | 6.0 | 0.00 | 0.00 | 0.00 | 59 | 1013.0 |
| 20260902040120 | 86 | 130 | 2.0 | 3.0 | 0.00 | 0.00 | 0.00 | 62 | 1012.8 |
| 20260902035618 | 86 | 143 | 0.0 | 2.0 | 0.00 | 0.00 | 0.00 | 61 | 1012.5 |
| 20260902035114 | 86 | 103 | 1.0 | 3.0 | 0.00 | 0.00 | 0.00 | 61 | 1012.4 |
| 20260902034612 | 86 | 103 | 0.0 | 1.0 | 0.00 | 0.00 | 0.00 | 60 | 1012.6 |
| 20260902034107 | 87 | 343 | 0.0 | 1.0 | 0.00 | 0.00 | 0.00 | 60 | 1012.5 |
| 20260902033606 | 86 | 81 | 0.0 | 2.0 | 0.00 | 0.00 | 0.00 | 60 | 1012.4 |
| 20260902033101 | 87 | 326 | 0.0 | 1.0 | 0.00 | 0.00 | 0.00 | 60 | 1012.5 |
| 20260902032600 | 87 | 322 | 0.0 | 1.0 | 0.00 | 0.00 | 0.00 | 59 | 1012.6 |
| 20260902032055 | 87 | 322 | 0.0 | 2.0 | 0.00 | 0.00 | 0.00 | 59 | 1012.5 |
| 20260902031549 | 87 | 89 | 0.0 | 1.0 | 0.00 | 0.00 | 0.00 | 58 | 1012.5 |
| 20260902031045 | 87 | 77 | 0.0 | 1.0 | 0.00 | 0.00 | 0.00 | 58 | 1012.4 |
| 20260902030540 | 87 | 71 | 0.0 | 2.0 | 0.00 | 0.00 | 0.00 | 58 | 1012.3 |
| 20260902030040 | 88 | 86 | 0.0 | 4.0 | 0.00 | 0.00 | 0.00 | 57 | 1012.1 |
| 20260902025534 | 88 | 87 | 0.0 | 4.0 | 0.00 | 0.00 | 0.00 | 57 | 1012.3 |
| 20260902025029 | 88 | 235 | 0.0 | 4.0 | 0.00 | 0.00 | 0.00 | 58 | 1012.1 |
| 20260902024520 | 88 | 202 | 0.0 | 2.0 | 0.00 | 0.00 | 0.00 | 58 | 1012.0 |
| 20260902024020 | 88 | 104 | 0.0 | 1.0 | 0.00 | 0.00 | 0.00 | 57 | 1012.2 |
| 20260902023516 | 88 | 100 | 1.0 | 3.0 | 0.00 | 0.00 | 0.00 | 56 | 1011.9 |
| 20260902023015 | 89 | 62 | 0.0 | 3.0 | 0.00 | 0.00 | 0.00 | 55 | 1012.0 |
| 20260902022510 | 89 | 44 | 0.0 | 1.0 | 0.00 | 0.00 | 0.00 | 55 | 1011.7 |
| 20260902022006 | 89 | 352 | 0.0 | 1.0 | 0.00 | 0.00 | 0.00 | 55 | 1011.8 |
| 20260902021501 | 89 | 350 | 0.0 | 2.0 | 0.00 | 0.00 | 0.00 | 55 | 1011.4 |
| 20260902020956 | 89 | 317 | 0.0 | 2.0 | 0.00 | 0.00 | 0.00 | 54 | 1011.4 |
| 20260902020452 | 89 | 44 | 0.0 | 1.0 | 0.00 | 0.00 | 0.00 | 53 | 1011.5 |
| 20260902015948 | 90 | 59 | 0.0 | 2.0 | 0.00 | 0.00 | 0.00 | 53 | 1011.3 |
| 20260902015443 | 90 | 97 | 0.0 | 2.0 | 0.00 | 0.00 | 0.00 | 52 | 1011.3 |
| 20260902014939 | 91 | 127 | 0.0 | 2.0 | 0.00 | 0.00 | 0.00 | 52 | 1011.3 |
| 20260902014435 | 91 | 89 | 0.0 | 2.0 | 0.00 | 0.00 | 0.00 | 51 | 1011.1 |
| 20260902013934 | 91 | 303 | 1.0 | 2.0 | 0.00 | 0.00 | 0.00 | 50 | 1011.1 |
| 20260902013430 | 92 | 95 | 2.0 | 2.0 | 0.00 | 0.00 | 0.00 | 50 | 1011.3 |
| 20260902012925 | 92 | 126 | 0.0 | 4.0 | 0.00 | 0.00 | 0.00 | 48 | 1011.2 |
| 20260902012420 | 92 | 144 | 2.0 | 3.0 | 0.00 | 0.00 | 0.00 | 48 | 1011.1 |
| 20260902011916 | 93 | 198 | 2.0 | 3.0 | 0.00 | 0.00 | 0.00 | 48 | 1010.9 |
| 20260902011410 | 93 | 180 | 2.0 | 3.0 | 0.00 | 0.00 | 0.00 | 47 | 1011.0 |
| 20260902010910 | 93 | 186 | 0.0 | 4.0 | 0.00 | 0.00 | 0.00 | 47 | 1011.0 |
| 20260902010405 | 93 | 127 | 2.0 | 4.0 | 0.00 | 0.00 | 0.00 | 47 | 1011.0 |
| 20260902005904 | 93 | 69 | 0.0 | 2.0 | 0.00 | 0.00 | 0.00 | 47 | 1011.1 |
| 20260902005358 | 94 | 179 | 0.0 | 2.0 | 0.00 | 0.00 | 0.00 | 46 | 1010.8 |
| 20260902004855 | 95 | 184 | 0.0 | 2.0 | 0.00 | 0.00 | 0.00 | 45 | 1010.7 |
| 20260902004354 | 95 | 168 | 0.0 | 3.0 | 0.00 | 0.00 | 0.00 | 45 | 1010.7 |
| 20260902003850 | 96 | 143 | 0.0 | 5.0 | 0.00 | 0.00 | 0.00 | 44 | 1010.6 |
| 20260902003349 | 96 | 85 | 0.0 | 5.0 | 0.00 | 0.00 | 0.00 | 43 | 1010.8 |
| 20260902002845 | 96 | 122 | 2.0 | 6.0 | 0.00 | 0.00 | 0.00 | 42 | 1010.7 |
| 20260902002344 | 96 | 121 | 4.0 | 6.0 | 0.00 | 0.00 | 0.00 | 42 | 1010.6 |
| 20260902001840 | 97 | 127 | 2.0 | 5.0 | 0.00 | 0.00 | 0.00 | 42 | 1010.9 |
| 20260902001335 | 97 | 107 | 1.0 | 8.0 | 0.00 | 0.00 | 0.00 | 42 | 1010.8 |
| 20260902000830 | 98 | 116 | 3.0 | 7.0 | 0.00 | 0.00 | 0.00 | 42 | 1010.9 |
| 20260902000330 | 98 | 87 | 3.0 | 5.0 | 0.00 | 0.00 | 0.00 | 42 | 1010.8 |
| 20260901235825 | 98 | 48 | 3.0 | 7.0 | 0.00 | 0.00 | 0.00 | 41 | 1011.0 |
| 20260901235325 | 98 | 120 | 5.0 | 9.0 | 0.00 | 0.00 | 0.00 | 40 | 1010.9 |
| 20260901234820 | 98 | 175 | 1.0 | 6.0 | 0.00 | 0.00 | 0.00 | 41 | 1010.9 |
| 20260901234314 | 98 | 102 | 0.0 | 3.0 | 0.00 | 0.00 | 0.00 | 41 | 1011.0 |
| 20260901233809 | 97 | 210 | 1.0 | 3.0 | 0.00 | 0.00 | 0.00 | 42 | 1011.2 |
| 20260901233305 | 97 | 159 | 3.0 | 3.0 | 0.00 | 0.00 | 0.00 | 42 | 1010.9 |
| 20260901232800 | 98 | 214 | 0.0 | 2.0 | 0.00 | 0.00 | 0.00 | 42 | 1011.1 |
| 20260901232249 | 98 | 107 | 2.0 | 5.0 | 0.00 | 0.00 | 0.00 | 42 | 1011.2 |
| 20260901231745 | 98 | 203 | 1.0 | 3.0 | 0.00 | 0.00 | 0.00 | 41 | 1011.2 |
| 20260901231236 | 97 | 145 | 0.0 | 2.0 | 0.00 | 0.00 | 0.00 | 42 | 1011.1 |
| 20260901230732 | 97 | 162 | 0.0 | 6.0 | 0.00 | 0.00 | 0.00 | 42 | 1011.2 |
| 20260901230231 | 98 | 143 | 2.0 | 3.0 | 0.00 | 0.00 | 0.00 | 42 | 1011.3 |
| 20260901225727 | 97 | 55 | 0.0 | 4.0 | 0.00 | 0.00 | 0.00 | 43 | 1011.2 |
| 20260901225221 | 97 | 61 | 3.0 | 6.0 | 0.00 | 0.00 | 0.00 | 43 | 1011.3 |
| 20260901224717 | 97 | 119 | 3.0 | 10.0 | 0.00 | 0.00 | 0.00 | 43 | 1011.3 |
| 20260901224213 | 97 | 22 | 0.0 | 6.0 | 0.00 | 0.00 | 0.00 | 43 | 1011.4 |
| 20260901223709 | 97 | 103 | 4.0 | 8.0 | 0.00 | 0.00 | 0.00 | 42 | 1011.3 |
| 20260901223203 | 97 | 132 | 2.0 | 6.0 | 0.00 | 0.00 | 0.00 | 42 | 1011.4 |
| 20260901222700 | 97 | 97 | 7.0 | 7.0 | 0.00 | 0.00 | 0.00 | 42 | 1011.5 |
| 20260901222155 | 97 | 83 | 4.0 | 7.0 | 0.00 | 0.00 | 0.00 | 42 | 1011.5 |
| 20260901221651 | 97 | 101 | 2.0 | 7.0 | 0.00 | 0.00 | 0.00 | 42 | 1011.4 |
| 20260901221147 | 97 | 98 | 6.0 | 9.0 | 0.00 | 0.00 | 0.00 | 42 | 1011.1 |
| 20260901220646 | 97 | 111 | 2.0 | 11.0 | 0.00 | 0.00 | 0.00 | 43 | 1011.3 |
| 20260901220145 | 97 | 63 | 1.0 | 10.0 | 0.00 | 0.00 | 0.00 | 42 | 1011.4 |
| 20260901215644 | 98 | 143 | 3.0 | 7.0 | 0.00 | 0.00 | 0.00 | 40 | 1011.2 |
| 20260901215139 | 98 | 78 | 3.0 | 6.0 | 0.00 | 0.00 | 0.00 | 40 | 1011.3 |
| 20260901214637 | 98 | 103 | 0.0 | 5.0 | 0.00 | 0.00 | 0.00 | 41 | 1011.4 |
| 20260901214136 | 98 | 49 | 1.0 | 5.0 | 0.00 | 0.00 | 0.00 | 41 | 1011.5 |
| 20260901213631 | 98 | 93 | 4.0 | 9.0 | 0.00 | 0.00 | 0.00 | 41 | 1011.5 |
| 20260901213125 | 98 | 79 | 1.0 | 5.0 | 0.00 | 0.00 | 0.00 | 41 | 1011.7 |
| 20260901212619 | 98 | 151 | 3.0 | 6.0 | 0.00 | 0.00 | 0.00 | 41 | 1011.7 |
| 20260901212116 | 98 | 146 | 2.0 | 9.0 | 0.00 | 0.00 | 0.00 | 41 | 1011.4 |
| 20260901211611 | 98 | 104 | 7.0 | 12.0 | 0.00 | 0.00 | 0.00 | 40 | 1011.8 |
| 20260901211107 | 100 | 120 | 9.0 | 12.0 | 0.00 | 0.00 | 0.00 | 39 | 1011.9 |
| 20260901210603 | 100 | 191 | 2.0 | 8.0 | 0.00 | 0.00 | 0.00 | 40 | 1011.9 |
| 20260901210058 | 100 | 173 | 7.0 | 9.0 | 0.00 | 0.00 | 0.00 | 39 | 1011.9 |
| 20260901205553 | 99 | 183 | 5.0 | 9.0 | 0.00 | 0.00 | 0.00 | 41 | 1012.1 |
| 20260901205048 | 98 | 161 | 6.0 | 8.0 | 0.00 | 0.00 | 0.00 | 41 | 1011.9 |
| 20260901204544 | 98 | 142 | 4.0 | 8.0 | 0.00 | 0.00 | 0.00 | 41 | 1012.2 |
| 20260901204038 | 99 | 101 | 5.0 | 6.0 | 0.00 | 0.00 | 0.00 | 39 | 1012.0 |
| 20260901203533 | 100 | 36 | 3.0 | 15.0 | 0.00 | 0.00 | 0.00 | 40 | 1012.1 |